Location: Seven Kings
(51.5667°N, 0.1000°E)
Time: 03:30:07
(UTC+00:00)

Cosmos 1386 Rocket - Pass Details

Date: 29 October 2020
Orbit: 930 x 1006 km, 83.0° (Epoch: 27 November)

Event Time Altitude Azimuth Distance (km) Brightness Sun altitude
Rises 18:14:09 0° 350° (N) 3,749 7.7 -15.5°
Reaches altitude 10° 18:16:42 10° 352° (N) 2,793 7.0 -15.9°
Maximum altitude 18:23:09 79° 79° (E) 1,023 4.5 -16.9°
Drops below altitude 10° 18:29:29 10° 167° (SSE) 2,744 6.7 -17.9°
Sets 18:31:59 0° 168° (SSE) 3,678 7.4 -18.3°
